[TLELIST] Archives

 

[list_settings.list_name] Current TLEs

August 11th 2013 PDT

HST 1 20580U 90037B 13222.55902061 .00001185 00000-0 71905-4 0 3010 2 20580 028.4694 276.3404 0002926 208.1791 267.7273 15.03825638 77899 ISS (ZARYA) 1 25544U 98067A 13223.44449502 .00005746 00000-0 10765-3 0 3698 2 25544 051.6486 194.5437 0003837 302.3597 198.6412 15.50248497843275 CXO 1 25867U 99040B 13223.46463429 .00000034 00000-0 00000+0 0 9344 2 25867 075.7561 336.3635 8505604 276.9752 000.9181 00.37802288 10745 ____________________________________________________________________ These 2-Line ...Continue Reading

[list_settings.list_name] Current TLEs

August 10th 2013 PDT

HST 1 20580U 90037B 13221.50041730 .00001131 00000-0 68117-4 0 3002 2 20580 028.4696 283.2823 0002925 196.4671 297.1029 15.03824460 77739 ISS (ZARYA) 1 25544U 98067A 13222.47840045 .00026296 00000-0 46297-3 0 3633 2 25544 051.6490 199.3300 0004086 300.7937 205.0044 15.50253672843128 CXO 1 25867U 99040B 13223.46463429 .00000034 00000-0 00000+0 0 9344 2 25867 075.7561 336.3635 8505604 276.9752 000.9181 00.37802288 10745 ____________________________________________________________________ These 2-Line ...Continue Reading

[list_settings.list_name] Current TLEs

August 9th 2013 PDT

HST 1 20580U 90037B 13220.41394208 .00001390 00000-0 86459-4 0 2995 2 20580 028.4709 290.4198 0003520 181.9712 178.0797 15.03821998 77569 ISS (ZARYA) 1 25544U 98067A 13221.50202705 .00004307 00000-0 82779-4 0 3579 2 25544 051.6486 204.1656 0003523 291.1888 162.0274 15.50217103842973 CXO 1 25867U 99040B 13223.46463429 .00000034 00000-0 00000+0 0 9344 2 25867 075.7561 336.3635 8505604 276.9752 000.9181 00.37802288 10745 ____________________________________________________________________ These 2-Line ...Continue Reading

[list_settings.list_name] Current TLEs

August 8th 2013 PDT

HST 1 20580U 90037B 13220.41394208 .00001390 00000-0 86459-4 0 2995 2 20580 028.4709 290.4198 0003520 181.9712 178.0797 15.03821998 77569 ISS (ZARYA) 1 25544U 98067A 13220.47954826 .00004716 00000-0 89913-4 0 3494 2 25544 051.6482 209.2313 0003577 289.5881 213.6467 15.50208210842817 CXO 1 25867U 99040B 13220.81966141 .00000079 00000-0 00000+0 0 9337 2 25867 075.7406 336.5279 8504883 276.9952 000.8836 00.37796693 10736 ____________________________________________________________________ These 2-Line ...Continue Reading

[list_settings.list_name] Current TLEs

August 7th 2013 PDT

HST 1 20580U 90037B 13218.50341667 .00001301 00000-0 80152-4 0 2977 2 20580 028.4701 302.9342 0003059 162.6823 273.8676 15.03818570 77277 ISS (ZARYA) 1 25544U 98067A 13219.29354598 .00005425 00000-0 94192-4 0 3406 2 25544 051.6484 215.1118 0003507 278.0306 082.0807 15.50197569246735 CXO 1 25867U 99040B 13220.81966141 .00000079 00000-0 00000+0 0 9337 2 25867 075.7406 336.5279 8504883 276.9952 000.8836 00.37796693 10736 ____________________________________________________________________ These 2-Line ...Continue Reading

[list_settings.list_name] Current TLEs

August 6th 2013 PDT

HST 1 20580U 90037B 13217.44561633 .00001278 00000-0 78537-4 0 2962 2 20580 028.4702 309.8703 0003110 150.7741 307.8251 15.03816776 77116 ISS (ZARYA) 1 25544U 98067A 13218.15422869 .00004134 00000-0 79869-4 0 3351 2 25544 051.6495 220.7545 0003700 277.0956 200.6392 15.50182103842454 CXO 1 25867U 99040B 13218.17728747 .00000019 00000-0 00000+0 0 9324 2 25867 075.7251 336.6537 8505954 277.0430 001.1315 00.37795391 10724 ____________________________________________________________________ These 2-Line ...Continue Reading

[list_settings.list_name] Current TLEs

August 5th 2013 PDT

HST 1 20580U 90037B 13215.73048880 .00001283 00000-0 78873-4 0 2954 2 20580 028.4704 321.1166 0003165 132.2805 022.7802 15.03811562 76868 ISS (ZARYA) 1 25544U 98067A 13217.37320351 .00003813 00000-0 74321-4 0 3314 2 25544 051.6487 224.6247 0003641 271.4351 164.7925 15.50172918842330 CXO 1 25867U 99040B 13218.17728747 .00000019 00000-0 00000+0 0 9324 2 25867 075.7251 336.6537 8505954 277.0430 001.1315 00.37795391 10724 ____________________________________________________________________ These 2-Line ...Continue Reading

[list_settings.list_name] Current TLEs

August 4th 2013 PDT

HST 1 20580U 90037B 13215.73048880 .00001283 00000-0 78873-4 0 2954 2 20580 028.4704 321.1166 0003165 132.2805 022.7802 15.03811562 76868 ISS (ZARYA) 1 25544U 98067A 13216.40744912 .00004418 00000-0 84861-4 0 3255 2 25544 051.6486 229.4080 0003583 266.8651 176.3147 15.50167109842187 CXO 1 25867U 99040B 13218.17728747 .00000019 00000-0 00000+0 0 9324 2 25867 075.7251 336.6537 8505954 277.0430 001.1315 00.37795391 10724 ____________________________________________________________________ These 2-Line ...Continue Reading

[list_settings.list_name] Current TLEs

August 3rd 2013 PDT

HST 1 20580U 90037B 13214.45596221 .00001294 00000-0 79709-4 0 2949 2 20580 028.4705 329.4733 0003254 118.5397 322.9941 15.03808478 76661 ISS (ZARYA) 1 25544U 98067A 13215.38020015 .00004882 00000-0 92948-4 0 3184 2 25544 051.6490 234.4981 0003638 263.0252 203.7253 15.50159115842029 CXO 1 25867U 99040B 13215.53153696 -.00000152 00000-0 00000+0 0 9314 2 25867 075.7028 336.7968 8509551 277.0806 000.9205 00.37796921 10713 ____________________________________________________________________ These 2-Line ...Continue Reading

[list_settings.list_name] Current TLEs

August 2nd 2013 PDT

HST 1 20580U 90037B 13212.45971161 .00001143 00000-0 68966-4 0 2932 2 20580 028.4708 342.5622 0003327 098.4503 314.6691 15.03804064 76367 ISS (ZARYA) 1 25544U 98067A 13214.43197917 .00004981 00000-0 94714-4 0 3111 2 25544 051.6494 239.1958 0003657 259.1656 312.4928 15.50149383841879 CXO 1 25867U 99040B 13215.53153696 -.00000152 00000-0 00000+0 0 9314 2 25867 075.7028 336.7968 8509551 277.0806 000.9205 00.37796921 10713 ____________________________________________________________________ These 2-Line ...Continue Reading
  • This mailing list is a public mailing list - anyone may join or leave, at any time.
  • This mailing list is announce-only.

International Space Station (ISS) / Hubble Space Telescope (HST) / Chandra X-Ray Observatory Orbital Data via EMAIL

Privacy Policy:

Private list